Location: Bannatyne
(13.0833°N, 59.5333°W)
Time: 10:10:46
(UTC+00:00)

Vanguard 2 Rocket - Pass Details

Date: 27 January 2020
Orbit: 554 x 3326 km, 32.9° (Epoch: 28 March)

Event Time Altitude Azimuth Distance (km) Brightness Sun altitude
Rises 07:33:36 0° 281° (WNW) 2,819 - -41.1°
Reaches altitude 10° 07:37:05 10° 313° (NW) 1,820 - -40.2°
Maximum altitude 07:38:52 13° 340° (NNW) 1,660 - -39.8°
Drops below altitude 10° 07:40:43 10° 8° (N) 1,867 - -39.4°
Sets 07:44:25 0° 39° (NE) 2,973 - -38.5°
Exits shadow 07:44:26 - 39° (NE) 2,979 9.8 -38.5°
